Location: Beadle
(51.4667°N, 109.0000°W)
Time: 04:16:19
(UTC+00:00)

Altair - Pass Details

Date: 06 June 2022
Orbit: 1501 x 1682 km, 47.2° (Epoch: 30 June)

Event Time Altitude Azimuth Distance (km) Brightness Sun altitude
Rises 18:06:41 0° 171° (S) 4,723 10.5 58.4°
Reaches altitude 10° 18:12:12 10° 146° (SE) 3,787 10.3 58.8°
Maximum altitude 18:15:49 13° 123° (ESE) 3,605 10.1 59.1°
Drops below altitude 10° 18:19:28 10° 100° (E) 3,850 10.0 59.3°
Sets 18:25:08 0° 75° (ENE) 4,881 10.2 59.7°
